Regional Weather Roundup
Issued by NWS Upton, NY

Current Version | Previous Version | Graphics & Text | Print | Product List | Glossary Off
Versions: 1 2 3 4 5 6 7 8 9 10 11 12 13 14 15 16 17 18 19 20 21 22 23 24 25 26 27 28 29 30 31 32 33 34 35 36 37 38 39 40 41 42 43 44 45 46 47 48 49 50

000
ASUS41 KOKX 261605
RWROKX

REGIONAL WEATHER ROUNDUP
NATIONAL WEATHER SERVICE NEW YORK NY
1100 AM EST FRI DEC 26 2014

NOTE: "FAIR" INDICATES FEW OR NO CLOUDS BELOW 12,000 FEET WITH NO
SIGNIFICANT WEATHER AND/OR OBSTRUCTIONS TO VISIBILITY.

NYZ071-072-176-178-NJZ106-104-261700-
NEW YORK CITY METRO AREA


CITY           SKY/WX    TMP DP  RH WIND       PRES   REMARKS
CENTRAL PARK   SUNNY     45  27  49 W8        30.27S
LAGUARDIA APRT MOSUNNY   44  29  55 NW10      30.24F
KENNEDY INTL   MOSUNNY   48  28  46 NW14      30.25F
NEWARK/LIBERTY NOT AVBL
BRNX BOT. GARD   N/A    N/A N/A N/A W8        30.24S
TETERBORO      SUNNY     44  30  57 NW12      30.24F
$$

NYZ177-179-078>081-261700-
LONG ISLAND NEW YORK

CITY           SKY/WX    TMP DP  RH WIND       PRES   REMARKS
FARMINGDALE    SUNNY     46  29  51 NW12      30.23F
ISLIP          SUNNY     47  30  51 NW10      30.21F
SHIRLEY        SUNNY     47  30  51 NW9       30.23F
WESTHAMPTON    SUNNY     48  30  49 NW8       30.23F
MONTAUK POINT    N/A     47  36  65 W7        30.21F
$$

NYZ052-065-067-261700-
HUDSON VALLEY

CITY           SKY/WX    TMP DP  RH WIND       PRES   REMARKS
WHITE PLAINS   SUNNY     44  29  55 NW12      30.21F
NEWBURGH       NOT AVBL
MONTGOMERY     SUNNY     45  28  51 NW9       30.22F
POUGHKEEPSIE   SUNNY     45  29  53 CALM      30.23S
ALBANY         CLOUDY    42  28  57 W16G24    30.24R
$$

NJZ001-105-106-008-010-013-015-019>022-104-261700-
NEW JERSEY

CITY           SKY/WX    TMP DP  RH WIND       PRES   REMARKS
NEWARK/LIBERTY NOT AVBL
TETERBORO      SUNNY     44  30  57 NW12      30.24F
CALDWELL       SUNNY     45  28  51 NW9       30.25F
MORRISTOWN     SUNNY     46  30  53 NW10G18   30.26S
SOMERVILLE     SUNNY     46  28  49 W7        30.26S
SUSSEX         SUNNY     43  29  57 VRB5      30.24F
ANDOVER        NOT AVBL
TRENTON        SUNNY     45  28  51 NW10      30.28F
MILLVILLE      SUNNY     47  31  53 NW8       30.31F
ATLANTIC CITY  SUNNY     46  30  53 NW15      30.29F
WRIGHTSTOWN    SUNNY     46  31  55 NW10      30.26F
TOMS RIVER     SUNNY     45  30  57 W14       30.29F
BELMAR         SUNNY     46  28  49 W10G18    30.27S
$$

PAZ047>061-062-071-261700-
EASTERN PENNSYLVANIA

CITY           SKY/WX    TMP DP  RH WIND       PRES   REMARKS
PHILADELPHIA   MOSUNNY   46  29  51 NW10      30.31F
ALLENTOWN      SUNNY     44  28  53 W7        30.29R
SCRANTON       SUNNY     41  28  60 W9        30.27R
$$

CTZ002-004>006-009-010-012-RIZ004-006-007-MAZ004-011-015-261700-
SOUTHERN NEW ENGLAND
 IN CT

CITY           SKY/WX    TMP DP  RH WIND       PRES   REMARKS
BRADLEY INTL   PTSUNNY   47  29  49 NW16      30.20S
HARTFORD       MOSUNNY   47  29  49 W8G17     30.22S
DANBURY        SUNNY     44  28  53 NW8       30.23S
WTRBRY/OXFORD  SUNNY     43  28  56 N12G17    30.22S
BRIDGEPORT     SUNNY     48  30  49 NW9       30.22F
MERIDEN        SUNNY     45  29  53 NW13      30.23S
NEW HAVEN      SUNNY     49  30  48 NW10      30.22F
CHESTER        FAIR      45  32  61 NW8       30.21S
GROTON         SUNNY     46  31  55 NW12      30.19F
WILLIMANTIC    MOSUNNY   45  29  53 W10G23    30.21S

 IN RI

CITY           SKY/WX    TMP DP  RH WIND       PRES   REMARKS
PROVIDENCE     MOSUNNY   46  30  53 W10       30.18F
BLOCK ISLAND   SUNNY     46  34  61 NW13G18   30.18F
WESTERLY       SUNNY     47  31  53 VRB6      30.19F

 IN MA

CITY           SKY/WX    TMP DP  RH WIND       PRES   REMARKS
BOSTON         MOSUNNY   46  31  55 W14G22    30.14F
WORCESTER      MOSUNNY   42  29  59 W10       30.14F
WESTFIELD      PTSUNNY   45  28  51 NW12      30.19F
PROVINCETOWN   SUNNY     46  34  61 W16       30.15F
NANTUCKET      SUNNY     48  32  53 NW14      30.17F
$$

ANZ330-335-338-340-345-350-353-355-261700-
COASTAL MARINE OBSERVATIONS


STATION/POSITION TIME  SKY/WX   TEMP    WIND        PRES    VSBY  WAVE
                                AIR SEA DIR/SP/G                  HT/PER
                 (UTC)          (F)     (DEG/KT/KT) (MB)    (MI)  (FT/S)
NY HARB ENTRANCE 1600            43 45  280/ 17/ 21 1024.8          3/ 4
4S FIRE IS       1600               47                N/A           3/ 5
20S FIRE ISLAND  1500            46 49              1024.7          4/ 5
23SW MTP         1600                                 N/A           4/ 5
HUDSON CANYON    1600            46 55  300/ 16/ 17 1024.3          5/ 6
EXECUTION ROCKS  1600            49 42  300/ 10/ 12   N/A
WESTERN LI SOUND 1600            44     290/ 10/ 12   N/A           1
CENTRAL LI SOUND 1500            42 44  280/ 10/ 12   N/A           2/ 4
EASTERN LI SOUND NOT AVBL
ROBBINS REEF     1600            43                 1023.2
$$


>>>>>>>>>>>>>>>>>>>>>>>>>>>> KEY <<<<<<<<<<<<<<<<<<<<<<<<<<<
>                                                          <
>     SKY/WX - SKY CONDITION/PRESENT WEATHER               <
>     TMP    - TEMPERATURE IN FAHRENHEIT                   <
>     DP     - DEWPOINT IN FAHRENHEIT                      <
>     RH     - RELATIVE HUMIDITY IN PERCENT                <
>     WIND   - DIRECTION AND SPEED IN MPH                  <
>     PRES   - MEAN SEA LEVEL PRESSURE IN INCHES OF HG     <
>     WCI    - WIND CHILL INDEX                            <
>     VSB    - VISIBILITY IN MILES                         <
>     HX     - HEAT INDEX                                  <
>     TC     - TEMPERATURE IN CELSIUS                      <
>     VRB    - VARIABLE WIND DIRECTION                     <
>                                                          <
>>>>>>>>>>>>>>>>>>>>>>>>>>>> KEY <<<<<<<<<<<<<<<<<<<<<<<<<<<




USA.gov is the U.S. government's official web portal to all federal, state and local government web resources and services.